Regional Weather Roundup
Issued by NWS Memphis, TN

Home | Current Version | Previous Version | Text Only | Print | Product List | Glossary On
Versions: 1 2 3 4 5 6 7 8 9 10 11 12 13 14 15 16 17 18 19 20 21 22 23 24 25 26 27 28 29 30 31 32 33 34 35 36 37 38 39 40 41 42 43 44 45 46 47 48 49 50
000
ASUS44 KMEG 011500
RWRMEG
MEMPHIS CWA HOURLY WEATHER ROUNDUP
NATIONAL WEATHER SERVICE MEMPHIS TN
900 AM CST SUN MAR 01 2015

...WEST TENNESSEE...

CITY           SKY/WX    TMP DP  RH WIND       PRES   REMARKS
MEMPHIS INTL   RAIN      36  33  89 NE3       30.39R FOG
NWS MEMPHIS      N/A     35 N/A N/A MISG        N/A
JACKSON        LGT RAIN  38  35  89 N3        30.39R FOG
LEXINGTON      CLOUDY    39  36  87 CALM      30.37S
SAVANNAH       CLOUDY    46  43  87 CALM      30.38S
DYERSBURG      CLOUDY    34  19  55 E5        30.40F WCI  30
UNION CITY     CLOUDY    32  32 100 SE3       30.36F
PARIS          CLOUDY    32  30  93 CALM      30.39R


...EASTERN ARKANSAS...

CITY           SKY/WX    TMP DP  RH WIND       PRES   REMARKS
JONESBORO      CLOUDY    32  31  96 E6        30.38R WCI  26
WEST MEMPHIS   LGT RAIN  34  34 100 NE5       30.38S FOG     WCI  30
BATESVILLE     CLOUDY    32  30  93 CALM      30.37S
WALNUT RIDGE   CLOUDY    32  27  80 NW8       30.39R WCI  25
BLYTHEVILLE    CLOUDY    34  31  88 SE5       30.39S WCI  30
SEARCY         CLOUDY    34  32  92 NE5       30.40S WCI  30
STUTTGART      CLOUDY    34  30  86 NE7       30.39S WCI  28
PINE BLUFF     MIX PCPN  32  30  92 N7        30.38S FOG     WCI  26
MONTICELLO     LGT RAIN  35  32  88 NE9       30.36R FOG     WCI  28


...NORTH MISSISSIPPI...

CITY           SKY/WX    TMP DP  RH WIND       PRES   REMARKS
TUPELO         CLOUDY    50  48  93 SW10      30.39R
TUNICA         RAIN      34  32  93 N7        30.39F WCI  28
GREENWOOD        N/A    N/A N/A N/A MISG      30.34F
GOLDEN TRIANGL CLOUDY    48  46  93 S12       30.39R FOG


...SOUTHEAST MISSOURI...

CITY           SKY/WX    TMP DP  RH WIND       PRES   REMARKS
WEST PLAINS    CLOUDY    31  29  92 CALM      30.34R
POPLAR BLUFF   CLOUDY    33  29  85 N6        30.36F FOG     WCI  28
CAPE GIRARDEAU CLOUDY    33  31  92 CALM      30.37S FOG


...NORTHWEST ALABAMA...

CITY           SKY/WX    TMP DP  RH WIND       PRES   REMARKS
MUSCLE SHOALS  CLOUDY    51  45  79 S9        30.39F


...MIDDLE TENNESSEE...

CITY           SKY/WX    TMP DP  RH WIND       PRES   REMARKS
NASHVILLE      CLOUDY    50  38  63 S8        30.38S
CLARKSVILLE    LGT RAIN  37  33  85 CALM      30.39R FOG
COLUMBIA       CLOUDY    48  48 100 S6        30.38R


...WESTERN KENTUCKY...

CITY           SKY/WX    TMP DP  RH WIND       PRES   REMARKS
PADUCAH        LGT RAIN  34  30  85 CALM      30.36S
FORT CAMPBELL  LGT RAIN  36  32  85 NW2       30.39R


...CENTRAL ARKANSAS...

CITY           SKY/WX    TMP DP  RH WIND       PRES   REMARKS
LITTLE ROCK    LGT RAIN  34  30  86 E3        30.39R FOG


SKY/WX REPORTED AS FAIR MEANS FEW OR NO CLOUDS BELOW
12 THOUSAND FEET.



USA.gov is the U.S. government's official web portal to all federal, state and local government web resources and services.